Temp
64 62 63 62 63 63 61 61 62 61 62 63 63 64 65 65 64 63 63 63 63 63 63 62 62 63 65 67 67 69 67 67 66 63 63 64 63 65 67 66 66 67 64 65 65 63 60 58 63 72 75 74 73 74 75 75 76 75 73 73 76 75 72
64 62 63 63 62 62 60 60 60 60 60 61 62 62 63 62 61 61 61 61 61 61 62 62 61 62 62 62 62 63 65 65 66 66 65 65 66 64 65 66 67 66 66 66 66 66 61 60 63 67 68 74 73 73 73 75 76 75 75 75 75 76 74
63 62 62 61 61 61 60 60 61 60 61 61 61 62 62 62 60 59 59 59 58 58 58 59 58 59 60 60 60 60 61 62 63 64 64 65 67 67 67 66 65 65 66 67 66 65 64 64 60 64 66 66 65 70 73 72 74 75 77 76 75 76 75
60 60 60 59 60 59 60 61 60 60 61 60 60 60 60 61 60 60 58 58 58 57 57 57 57 57 58 59 60 60 60 59 59 59 61 63 64 65 66 66 65 64 63 63 65 65 64 61 61 64 66 69 68 67 71 75 74 76 77 76 76 76 76
59 58 57 57 59 59 59 59 60 61 60 60 59 59 58 59 59 58 58 58 57 57 56 57 57 57 57 59 59 59 60 60 59 57 58 59 59 61 64 66 65 67 66 65 66 65 63 64 63 62 63 67 68 71 75 73 76 76 76 77 78 77 77
58 58 57 58 58 58 58 57 58 58 58 57 57 57 57 57 58 57 56 56 56 56 56 56 56 57 56 57 58 58 58 58 58 57 57 57 58 58 58 61 63 65 65 68 66 64 65 65 63 59 65 68 64 66 72 73 72 76 76 76 77 78 79
57 57 57 56 57 57 58 57 57 57 56 55 56 55 57 57 57 56 56 56 56 56 56 56 56 56 56 57 57 56 56 57 57 56 56 56 57 58 58 57 58 59 63 67 65 64 64 64 61 60 61 63 65 65 69 70 74 70 73 76 78 79 79
58 57 57 57 56 56 57 56 56 57 56 55 55 56 57 56 56 56 55 55 55 55 55 55 54 55 55 55 56 54 55 54 54 54 54 54 54 54 54 55 55 58 60 61 62 64 67 65 64 63 62 59 62 65 66 72 73 72 72 76 79 78 78
58 58 57 57 56 56 56 56 55 55 56 56 56 56 56 56 55 55 55 54 55 55 55 54 54 55 55 54 54 53 52 53 52 52 53 53 52 52 53 54 55 56 58 58 58 59 60 62 63 64 63 61 57 56 64 64 68 71 77 74 77 78 78
57 56 55 55 55 56 57 56 56 55 55 56 56 56 56 56 55 55 55 54 54 54 54 54 54 55 55 53 52 52 51 53 53 52 52 53 53 53 53 53 54 55 56 57 57 58 58 59 61 61 62 59 59 56 56 60 65 67 72 76 71 76 78
57 57 57 56 56 55 55 56 56 55 54 55 56 56 56 55 55 55 54 54 54 54 53 54 54 54 54 53 52 53 53 53 53 54 53 53 53 53 54 54 54 54 56 56 57 58 58 58 58 59 59 60 60 57 57 55 57 66 68 73 75 74 77
58 57 57 57 56 55 55 55 54 54 55 55 55 55 55 55 54 54 54 54 54 53 53 53 53 53 53 53 53 53 52 53 53 53 53 54 54 54 53 53 55 55 56 55 56 57 58 59 57 57 57 57 57 57 56 56 54 62 69 66 71 76 75
58 57 57 56 55 55 55 55 55 53 53 55 55 55 55 54 54 54 54 54 53 53 53 53 53 53 53 52 53 52 52 52 52 52 53 54 54 53 54 54 54 54 55 55 55 56 56 56 55 54 55 55 55 55 54 53 52 55 66 68 70 73 76
56 57 56 56 55 54 54 54 54 54 55 54 55 54 54 54 54 54 54 54 54 53 52 52 52 53 53 52 53 52 52 53 52 53 53 53 55 54 54 54 55 55 55 53 54 54 54 54 53 53 53 53 53 53 52 50 48 52 59 67 69 70 72
56 56 55 55 54 55 54 54 54 54 53 54 54 54 54 54 54 54 54 54 53 53 53 53 52 52 52 52 52 52 52 52 52 52 53 54 55 55 54 53 53 53 54 53 53 53 53 52 52 51 51 50 50 50 52 49 48 48 50 58 63 69 70
56 55 54 54 54 54 54 54 55 54 53 54 54 54 53 54 53 54 54 53 53 53 53 53 52 52 51 51 51 51 52 52 52 51 51 52 54 54 53 52 52 52 52 51 52 52 53 52 52 50 49 50 49 49 50 50 47 46 47 51 58 61 65
54 54 54 54 53 54 54 54 55 54 54 54 53 54 54 54 53 53 53 53 53 53 52 52 52 52 51 51 52 52 52 52 53 53 52 53 53 52 52 51 51 51 51 50 50 51 52 51 50 49 49 50 49 48 49 49 48 46 47 48 53 57 61
54 53 53 53 53 54 54 54 54 54 54 53 53 53 54 54 53 53 52 52 52 52 52 52 51 51 51 52 52 51 52 52 52 52 52 52 52 52 51 51 50 50 49 48 49 49 50 48 49 48 48 49 49 49 49 48 48 48 47 46 49 54 58
53 53 53 53 53 53 53 54 54 54 54 53 53 53 53 53 53 53 53 53 53 52 52 52 52 51 52 52 51 51 51 52 52 52 52 52 52 52 51 51 50 49 48 47 47 48 48 47 47 46 46 47 48 48 47 48 49 49 48 47 48 50 55
53 53 53 53 53 53 53 53 53 53 54 53 52 52 52 53 52 53 52 52 52 52 52 51 51 50 51 51 51 51 51 51 51 52 52 52 53 53 52 51 50 49 48 48 47 46 46 46 45 45 45 45 46 45 45 46 48 48 48 47 49 51 53
53 53 53 53 53 53 53 53 52 53 53 52 52 52 52 52 52 53 52 52 52 52 52 51 50 49 50 50 51 51 51 50 51 51 51 52 53 52 52 51 50 49 49 49 47 47 47 45 45 44 45 45 45 45 44 45 46 47 47 47 48 50 52
54 54 53 53 52 52 52 52 52 52 52 51 51 52 52 52 52 52 52 52 52 51 50 49 48 47 47 49 50 50 51 51 51 51 51 52 52 52 51 50 50 49 49 48 46 46 46 45 45 43 44 45 44 43 43 43 44 44 45 45 46 49 50
53 53 52 52 51 51 51 51 51 51 51 51 51 52 52 52 52 51 51 51 51 50 50 49 44 42 42 45 49 50 50 51 52 51 50 50 51 51 50 49 49 48 47 46 46 44 43 43 44 45 44 44 43 43 42 42 42 43 43 43 44 46 46
53 52 52 51 51 51 51 50 50 50 50 50 50 51 51 51 50 50 50 50 50 50 49 47 40 40 40 41 46 50 50 50 52 51 50 49 48 48 49 49 48 48 48 47 47 44 43 43 42 42 42 43 43 43 41 40 41 42 42 42 44 44 44
52 52 51 51 51 51 50 50 49 49 49 49 50 50 49 50 49 50 50 51 50 50 50 43 39 40 40 40 42 49 51 50 50 50 49 48 48 47 47 47 47 48 48 48 48 47 45 43 42 42 41 41 41 42 42 42 41 41 41 41 42 43 44
52 51 51 51 51 50 50 49 49 48 48 49 49 49 49 49 49 49 50 50 50 50 50 42 40 40 40 40 40 45 51 51 50 49 48 47 47 47 46 46 47 47 48 48 48 47 45 45 44 43 43 43 44 44 41 40 41 43 44 41 41 42 43
51 51 51 51 50 50 49 48 48 48 49 49 48 48 48 48 49 49 49 49 49 50 49 43 40 40 40 39 39 43 50 49 49 50 50 48 48 47 47 46 46 46 48 47 47 45 44 44 45 45 46 47 47 47 44 43 43 42 44 44 43 42 45
51 51 51 50 50 49 48 48 48 49 49 48 48 48 48 48 48 48 49 49 49 49 48 41 39 39 39 40 39 44 51 50 50 50 50 50 50 50 49 48 47 47 47 47 47 44 43 43 43 44 45 45 46 47 48 48 48 48 46 46 45 44 45
51 51 51 50 49 48 48 48 47 48 48 49 49 49 49 49 48 48 49 49 49 49 49 41 39 39 39 39 40 51 51 51 50 50 50 50 50 50 50 49 48 48 48 48 45 40 41 43 44 44 43 44 45 46 48 48 45 44 45 45 45 45 45
50 50 50 50 49 48 47 47 48 49 48 48 48 48 48 48 49 49 48 49 48 49 50 44 39 39 39 39 44 51 51 51 51 50 50 50 51 51 51 50 49 48 48 48 43 38 39 40 44 43 42 42 43 45 46 48 45 42 42 42 41 41 41
51 50 50 49 48 48 48 48 48 48 48 48 48 48 50 49 50 49 48 48 47 48 49 46 40 39 39 39 42 50 51 50 50 50 50 51 51 51 51 47 48 48 46 46 40 39 39 42 44 42 41 40 40 42 44 45 44 45 43 43 43 43 43
52 51 50 49 49 48 48 48 48 49 49 49 49 50 50 50 49 50 49 48 45 47 49 47 42 39 39 39 43 50 50 50 49 49 50 50 51 51 51 50 46 45 44 42 38 39 38 42 44 43 41 39 38 40 41 41 40 41 43 44 46 47 47
51 51 50 49 49 48 49 49 48 48 49 50 50 50 50 49 49 49 49 49 48 48 47 49 47 39 39 39 39 47 51 48 47 48 49 50 49 50 50 50 49 43 39 39 38 38 39 39 43 44 42 37 35 35 38 39 41 41 42 42 43 45 45
51 50 51 50 49 49 49 48 48 48 48 49 49 48 48 48 49 49 49 49 49 49 48 47 47 40 40 39 39 41 50 48 47 49 50 50 50 49 49 49 50 44 39 39 39 39 39 39 40 43 41 38 37 38 39 39 40 41 41 41 42 42 43
51 50 51 50 49 48 48 49 48 48 49 48 48 47 48 48 49 49 49 49 49 49 48 44 46 43 39 39 39 39 45 47 45 48 48 49 49 49 49 49 49 44 38 39 39 39 39 39 39 43 40 38 37 37 39 41 40 40 39 40 40 40 41
50 51 50 50 49 48 49 49 48 48 48 48 48 48 47 48 48 48 49 50 50 49 49 49 42 44 41 38 38 39 38 42 39 47 48 48 48 48 49 48 48 42 38 39 39 39 40 39 42 42 38 38 38 38 39 40 38 38 38 38 38 37 38
51 51 50 50 50 49 48 48 49 49 48 49 49 49 49 48 48 48 48 48 49 50 50 50 45 41 43 39 39 38 38 38 38 44 48 49 49 49 48 47 45 39 39 39 39 40 40 40 42 39 39 38 38 39 39 39 37 37 37 37 36 36 36
MSLP
1022.90 1023.17 1023.22 1023.26 1023.17 1023.17 1023.26 1023.29 1023.22 1023.17 1023.14 1023.05 1023.02 1022.93 1022.78 1022.61 1022.53 1022.46 1022.34 1022.26 1022.14 1022.05 1021.85 1021.73 1021.58 1021.34 1021.05 1020.73 1020.41 1020.17 1020.09 1020.14 1020.22 1020.38 1020.38 1020.17 1020.29 1020.02 1019.61 1019.66 1019.49 1019.34 1019.41 1019.38 1019.34 1019.53 1019.41 1019.22 1018.22 1017.26 1016.85 1016.82 1016.85 1016.73 1016.66 1016.66 1016.61 1016.61 1016.70 1016.66 1016.66 1016.70 1016.78
1023.17 1023.38 1023.41 1023.38 1023.38 1023.38 1023.46 1023.49 1023.49 1023.49 1023.58 1023.58 1023.41 1023.34 1023.17 1023.09 1023.05 1022.97 1022.90 1022.82 1022.73 1022.58 1022.38 1022.22 1022.05 1021.85 1021.61 1021.34 1021.05 1020.73 1020.46 1020.22 1020.14 1020.09 1020.05 1019.97 1019.85 1019.90 1019.73 1019.46 1019.29 1019.29 1019.14 1019.05 1018.90 1019.02 1019.22 1019.09 1018.05 1017.70 1017.34 1016.58 1016.53 1016.46 1016.49 1016.29 1016.17 1016.09 1016.09 1016.09 1016.09 1016.17 1016.29
1023.46 1023.58 1023.61 1023.70 1023.61 1023.58 1023.66 1023.73 1023.70 1023.73 1023.73 1023.78 1023.73 1023.66 1023.53 1023.49 1023.46 1023.38 1023.26 1023.22 1023.17 1023.05 1022.85 1022.70 1022.58 1022.34 1022.02 1021.73 1021.49 1021.26 1020.93 1020.70 1020.46 1020.26 1020.17 1019.90 1019.70 1019.46 1019.41 1019.38 1019.53 1019.29 1019.02 1018.73 1018.82 1018.73 1018.66 1018.58 1018.70 1018.02 1017.58 1017.58 1017.38 1016.46 1016.14 1016.22 1016.05 1015.82 1015.66 1015.61 1015.70 1015.61 1015.66
1023.82 1023.78 1023.78 1023.85 1023.90 1023.90 1023.78 1023.85 1023.93 1024.02 1024.02 1024.02 1023.97 1023.97 1023.93 1023.82 1023.70 1023.61 1023.58 1023.49 1023.46 1023.34 1023.17 1022.93 1022.82 1022.66 1022.41 1022.14 1021.73 1021.41 1021.17 1021.05 1020.97 1020.85 1020.58 1020.26 1019.97 1019.66 1019.34 1019.29 1019.29 1019.29 1019.38 1019.26 1018.93 1018.73 1018.82 1018.73 1018.29 1017.70 1017.41 1017.17 1016.93 1016.61 1016.02 1015.66 1015.61 1015.46 1015.34 1015.22 1015.22 1015.05 1015.05
1024.06 1024.06 1024.14 1024.26 1024.14 1024.14 1024.14 1024.18 1024.14 1024.09 1024.21 1024.30 1024.30 1024.30 1024.30 1024.26 1024.02 1023.97 1023.90 1023.78 1023.66 1023.53 1023.41 1023.26 1023.09 1022.93 1022.70 1022.34 1021.97 1021.73 1021.41 1021.26 1021.26 1021.14 1020.90 1020.61 1020.49 1020.14 1019.70 1019.29 1019.17 1018.93 1018.82 1018.85 1018.58 1018.58 1018.61 1018.38 1018.22 1017.90 1017.66 1017.05 1016.61 1016.05 1015.41 1015.41 1015.05 1015.05 1014.93 1014.78 1014.61 1014.58 1014.58
1024.38 1024.38 1024.42 1024.38 1024.49 1024.49 1024.54 1024.57 1024.45 1024.49 1024.61 1024.69 1024.73 1024.69 1024.78 1024.69 1024.49 1024.42 1024.33 1024.21 1024.06 1023.93 1023.78 1023.53 1023.34 1023.17 1022.97 1022.61 1022.34 1022.14 1021.93 1021.78 1021.66 1021.53 1021.26 1021.22 1021.05 1020.66 1020.41 1020.02 1019.58 1019.14 1018.90 1018.46 1018.46 1018.46 1018.26 1018.05 1017.97 1017.97 1017.17 1016.85 1016.97 1016.17 1015.53 1015.29 1015.14 1014.58 1014.41 1014.46 1014.34 1014.14 1014.02
1024.66 1024.73 1024.78 1024.85 1024.94 1024.85 1024.90 1024.97 1024.97 1024.97 1025.09 1025.14 1025.09 1025.02 1025.02 1024.97 1024.85 1024.81 1024.69 1024.57 1024.42 1024.21 1023.97 1023.82 1023.61 1023.46 1023.29 1022.93 1022.73 1022.66 1022.41 1022.26 1022.14 1021.97 1021.78 1021.70 1021.41 1021.22 1021.02 1020.58 1020.22 1019.90 1019.22 1018.58 1018.49 1018.38 1018.26 1018.05 1017.85 1017.70 1017.41 1016.93 1016.70 1016.26 1015.46 1015.22 1014.58 1014.73 1014.14 1013.90 1013.70 1013.61 1013.53
1024.90 1024.97 1025.02 1025.09 1025.21 1025.26 1025.21 1025.30 1025.33 1025.30 1025.38 1025.42 1025.42 1025.38 1025.33 1025.26 1025.18 1025.06 1024.94 1024.78 1024.61 1024.45 1024.26 1024.14 1023.97 1023.73 1023.58 1023.29 1023.14 1023.17 1022.97 1022.93 1022.73 1022.53 1022.29 1022.17 1021.90 1021.82 1021.53 1021.22 1020.85 1020.26 1019.78 1019.41 1018.93 1018.46 1018.02 1017.85 1017.85 1017.53 1017.34 1017.09 1016.29 1016.02 1015.53 1014.61 1014.29 1014.22 1013.97 1013.41 1013.17 1013.22 1013.14
1025.09 1025.14 1025.21 1025.33 1025.42 1025.45 1025.45 1025.45 1025.57 1025.61 1025.61 1025.61 1025.69 1025.66 1025.61 1025.45 1025.38 1025.26 1025.09 1024.97 1024.81 1024.66 1024.54 1024.45 1024.30 1023.97 1023.73 1023.66 1023.58 1023.58 1023.46 1023.29 1023.05 1022.85 1022.66 1022.41 1022.29 1022.14 1021.90 1021.66 1021.26 1020.82 1020.41 1020.09 1019.85 1019.49 1019.05 1018.53 1018.02 1017.53 1017.26 1017.22 1017.22 1016.53 1015.49 1015.14 1014.46 1013.85 1013.14 1013.38 1012.82 1012.58 1012.70
1025.45 1025.54 1025.57 1025.61 1025.61 1025.61 1025.49 1025.57 1025.69 1025.81 1025.85 1025.81 1025.81 1025.78 1025.73 1025.66 1025.54 1025.45 1025.26 1025.14 1024.94 1024.85 1024.78 1024.61 1024.45 1024.21 1023.97 1024.02 1024.02 1023.85 1023.70 1023.41 1023.17 1023.02 1022.85 1022.66 1022.38 1022.22 1021.97 1021.78 1021.49 1021.17 1020.82 1020.53 1020.17 1019.85 1019.46 1018.97 1018.49 1017.93 1017.53 1017.49 1017.26 1017.09 1016.14 1015.26 1014.41 1014.05 1013.17 1013.02 1013.29 1012.46 1012.34
1025.66 1025.69 1025.69 1025.69 1025.73 1025.73 1025.73 1025.78 1025.81 1025.97 1026.09 1026.02 1025.94 1025.90 1025.85 1025.81 1025.73 1025.61 1025.49 1025.33 1025.18 1025.06 1024.94 1024.78 1024.57 1024.42 1024.26 1024.14 1024.09 1023.85 1023.78 1023.58 1023.26 1023.05 1022.93 1022.78 1022.58 1022.34 1022.09 1021.85 1021.58 1021.29 1020.93 1020.70 1020.38 1019.97 1019.58 1019.22 1018.82 1018.34 1017.90 1017.41 1017.17 1017.05 1016.46 1016.05 1014.90 1014.29 1013.58 1012.85 1012.70 1012.53 1012.14
1025.85 1025.94 1025.94 1025.94 1025.90 1025.94 1026.06 1026.21 1026.30 1026.30 1026.21 1026.18 1026.06 1026.06 1026.06 1026.02 1025.94 1025.90 1025.73 1025.66 1025.45 1025.30 1025.18 1025.02 1024.81 1024.61 1024.45 1024.30 1024.09 1024.02 1023.97 1023.73 1023.46 1023.22 1023.02 1022.78 1022.53 1022.38 1022.14 1021.85 1021.49 1021.26 1020.97 1020.73 1020.46 1020.09 1019.66 1019.29 1019.09 1018.85 1018.49 1018.26 1017.85 1017.38 1016.97 1016.26 1015.49 1013.58 1013.61 1013.26 1012.49 1012.09 1012.05
1026.02 1026.09 1026.18 1026.18 1026.21 1026.30 1026.42 1026.45 1026.49 1026.49 1026.45 1026.38 1026.38 1026.33 1026.30 1026.26 1026.21 1026.09 1026.02 1025.94 1025.73 1025.57 1025.42 1025.21 1025.06 1024.85 1024.66 1024.49 1024.38 1024.26 1024.18 1023.93 1023.66 1023.41 1023.17 1022.97 1022.78 1022.53 1022.26 1021.90 1021.58 1021.29 1021.14 1020.90 1020.49 1020.17 1019.93 1019.85 1019.73 1019.49 1019.09 1018.73 1018.34 1018.02 1017.66 1017.09 1016.53 1014.90 1013.61 1013.29 1012.61 1012.02 1011.70
1026.42 1026.42 1026.45 1026.49 1026.54 1026.61 1026.69 1026.73 1026.73 1026.69 1026.66 1026.66 1026.66 1026.66 1026.57 1026.54 1026.45 1026.38 1026.26 1026.14 1025.97 1025.78 1025.57 1025.42 1025.26 1025.06 1024.85 1024.78 1024.57 1024.49 1024.30 1023.97 1023.82 1023.53 1023.38 1023.02 1022.70 1022.61 1022.41 1022.09 1021.73 1021.58 1021.46 1021.22 1020.85 1020.46 1020.29 1020.22 1020.02 1019.78 1019.46 1019.14 1018.82 1018.46 1018.29 1018.14 1017.66 1016.17 1014.26 1013.49 1012.73 1012.02 1011.61
1026.66 1026.73 1026.81 1026.81 1026.81 1026.85 1026.97 1027.02 1026.97 1026.97 1026.94 1027.02 1026.97 1026.94 1026.90 1026.85 1026.73 1026.61 1026.54 1026.38 1026.21 1025.97 1025.78 1025.66 1025.49 1025.30 1025.18 1024.97 1024.78 1024.61 1024.42 1024.18 1024.02 1023.82 1023.46 1023.02 1022.73 1022.49 1022.46 1022.29 1021.97 1021.85 1021.70 1021.46 1021.09 1020.70 1020.53 1020.41 1020.26 1019.97 1019.70 1019.49 1019.22 1018.85 1018.58 1018.49 1017.93 1017.29 1015.85 1014.17 1013.49 1012.41 1011.78
1026.94 1027.02 1027.06 1027.06 1027.14 1027.14 1027.18 1027.21 1027.21 1027.21 1027.26 1027.30 1027.26 1027.18 1027.18 1027.09 1027.02 1026.85 1026.73 1026.61 1026.45 1026.26 1026.06 1025.90 1025.73 1025.57 1025.49 1025.38 1025.14 1024.85 1024.57 1024.33 1024.09 1023.85 1023.58 1023.22 1022.90 1022.78 1022.58 1022.46 1022.26 1022.09 1021.90 1021.66 1021.29 1020.97 1020.78 1020.66 1020.49 1020.26 1019.93 1019.61 1019.46 1019.09 1018.78 1018.61 1018.38 1017.73 1016.73 1015.14 1014.22 1013.38 1012.38
1027.18 1027.21 1027.21 1027.30 1027.42 1027.45 1027.42 1027.42 1027.42 1027.45 1027.49 1027.49 1027.42 1027.42 1027.38 1027.33 1027.26 1027.14 1027.02 1026.90 1026.78 1026.57 1026.38 1026.21 1026.02 1025.85 1025.78 1025.61 1025.30 1025.06 1024.81 1024.45 1024.21 1023.93 1023.78 1023.53 1023.29 1023.09 1022.97 1022.73 1022.58 1022.41 1022.26 1021.97 1021.53 1021.17 1020.97 1020.90 1020.73 1020.46 1020.17 1019.78 1019.46 1019.14 1018.78 1018.49 1018.34 1018.09 1017.09 1016.02 1014.17 1014.09 1012.93
1027.42 1027.45 1027.54 1027.61 1027.69 1027.66 1027.61 1027.66 1027.66 1027.66 1027.69 1027.66 1027.66 1027.61 1027.57 1027.54 1027.45 1027.38 1027.30 1027.18 1027.06 1026.90 1026.78 1026.57 1026.38 1026.18 1026.02 1025.81 1025.57 1025.33 1025.06 1024.78 1024.57 1024.33 1024.18 1023.93 1023.70 1023.46 1023.26 1023.05 1022.90 1022.82 1022.61 1022.29 1021.82 1021.53 1021.34 1021.22 1020.93 1020.66 1020.38 1019.97 1019.58 1019.17 1018.78 1018.46 1018.05 1017.70 1017.17 1016.34 1014.90 1013.78 1013.17
1027.66 1027.69 1027.78 1027.81 1027.85 1027.85 1027.90 1027.85 1027.90 1027.90 1027.85 1027.90 1027.85 1027.85 1027.81 1027.78 1027.69 1027.61 1027.54 1027.42 1027.30 1027.14 1027.02 1026.90 1026.69 1026.49 1026.30 1026.06 1025.78 1025.57 1025.33 1025.09 1024.90 1024.61 1024.38 1024.14 1023.82 1023.61 1023.46 1023.26 1023.14 1023.02 1022.85 1022.53 1022.22 1021.97 1021.73 1021.53 1021.26 1020.97 1020.61 1020.22 1019.82 1019.41 1018.97 1018.38 1017.82 1017.26 1016.82 1016.09 1015.46 1013.93 1012.93
1027.85 1027.94 1027.94 1027.97 1028.02 1028.06 1028.14 1028.18 1028.09 1028.09 1028.09 1028.06 1028.06 1028.02 1028.02 1027.97 1027.94 1027.85 1027.78 1027.61 1027.49 1027.42 1027.30 1027.18 1027.06 1026.85 1026.57 1026.30 1026.06 1025.85 1025.61 1025.33 1025.09 1024.81 1024.54 1024.26 1023.93 1023.70 1023.53 1023.46 1023.34 1023.22 1023.02 1022.70 1022.53 1022.34 1022.02 1021.78 1021.58 1021.29 1020.90 1020.49 1019.97 1019.53 1018.97 1018.38 1017.78 1017.22 1016.53 1015.85 1014.90 1014.14 1013.05
1028.02 1028.06 1028.09 1028.14 1028.21 1028.30 1028.30 1028.33 1028.38 1028.33 1028.30 1028.30 1028.30 1028.30 1028.21 1028.18 1028.14 1028.02 1027.97 1027.81 1027.81 1027.66 1027.57 1027.54 1027.45 1027.33 1027.02 1026.61 1026.30 1026.06 1025.78 1025.54 1025.26 1024.94 1024.69 1024.42 1024.09 1023.93 1023.73 1023.61 1023.49 1023.34 1023.17 1022.93 1022.78 1022.49 1022.26 1022.02 1021.70 1021.29 1020.85 1020.41 1019.93 1019.49 1018.97 1018.34 1017.73 1017.09 1016.46 1015.70 1015.02 1013.97 1013.02
1028.18 1028.21 1028.26 1028.33 1028.45 1028.54 1028.54 1028.57 1028.57 1028.57 1028.57 1028.54 1028.54 1028.49 1028.42 1028.33 1028.26 1028.14 1028.06 1028.06 1028.02 1028.02 1027.90 1027.90 1028.02 1027.97 1027.49 1027.02 1026.49 1026.21 1025.90 1025.66 1025.38 1025.09 1024.78 1024.54 1024.18 1024.02 1023.85 1023.73 1023.58 1023.49 1023.34 1023.17 1022.97 1022.78 1022.53 1022.34 1021.90 1021.29 1020.73 1020.38 1019.93 1019.53 1019.02 1018.46 1017.82 1017.14 1016.41 1015.82 1014.93 1014.09 1013.17
1028.38 1028.45 1028.54 1028.61 1028.69 1028.73 1028.73 1028.78 1028.81 1028.81 1028.81 1028.78 1028.73 1028.69 1028.61 1028.54 1028.42 1028.33 1028.26 1028.26 1028.26 1028.26 1028.21 1028.26 1028.66 1028.54 1028.18 1027.69 1026.81 1026.30 1026.06 1025.78 1025.42 1025.18 1025.02 1024.69 1024.33 1024.09 1024.02 1023.90 1023.66 1023.53 1023.34 1023.14 1022.82 1022.58 1022.38 1022.14 1021.78 1021.49 1020.93 1020.41 1019.90 1019.49 1019.05 1018.49 1017.78 1017.09 1016.49 1015.85 1015.05 1014.29 1013.38
1028.57 1028.66 1028.73 1028.81 1028.85 1028.90 1028.97 1029.02 1029.02 1029.02 1029.06 1029.02 1028.97 1028.94 1028.81 1028.69 1028.66 1028.61 1028.54 1028.54 1028.54 1028.45 1028.45 1028.73 1028.97 1028.57 1028.21 1027.97 1027.30 1026.45 1026.18 1025.85 1025.54 1025.33 1025.21 1024.94 1024.69 1024.45 1024.21 1024.02 1023.73 1023.41 1023.14 1022.82 1022.46 1022.29 1022.14 1021.82 1021.41 1020.93 1020.49 1020.17 1019.85 1019.53 1018.93 1018.34 1017.73 1017.14 1016.46 1015.73 1014.97 1014.38 1013.61
1028.73 1028.85 1028.90 1028.97 1029.02 1029.09 1029.14 1029.18 1029.21 1029.21 1029.21 1029.21 1029.21 1029.14 1029.02 1028.97 1028.94 1028.94 1028.85 1028.78 1028.73 1028.73 1028.66 1029.14 1029.02 1028.69 1028.33 1028.02 1027.66 1026.73 1026.21 1025.97 1025.78 1025.57 1025.49 1025.30 1025.06 1024.81 1024.54 1024.21 1023.78 1023.38 1023.05 1022.73 1022.34 1022.05 1021.82 1021.49 1021.05 1020.49 1019.97 1019.46 1018.97 1018.66 1018.53 1018.22 1017.58 1016.93 1016.46 1015.78 1014.97 1014.26 1013.70
1028.90 1029.06 1029.09 1029.14 1029.21 1029.26 1029.30 1029.33 1029.38 1029.45 1029.54 1029.57 1029.42 1029.30 1029.30 1029.21 1029.21 1029.21 1029.14 1029.06 1029.02 1028.94 1028.85 1029.26 1029.14 1028.81 1028.42 1028.06 1027.61 1026.90 1026.30 1026.18 1025.90 1025.78 1025.69 1025.49 1025.26 1025.06 1024.78 1024.33 1023.82 1023.46 1023.02 1022.73 1022.38 1022.14 1021.85 1021.26 1020.58 1020.02 1019.46 1018.82 1018.22 1017.82 1017.58 1017.34 1017.14 1016.73 1016.02 1015.58 1014.97 1013.90 1013.46
1029.14 1029.21 1029.26 1029.33 1029.38 1029.38 1029.45 1029.61 1029.73 1029.78 1029.78 1029.66 1029.57 1029.57 1029.54 1029.57 1029.54 1029.49 1029.45 1029.33 1029.18 1029.09 1029.02 1029.33 1029.21 1028.90 1028.49 1028.09 1027.61 1027.06 1026.61 1026.33 1026.06 1025.73 1025.45 1025.42 1025.18 1024.94 1024.69 1024.33 1023.97 1023.53 1023.22 1022.90 1022.49 1022.29 1021.97 1021.34 1020.53 1019.73 1018.97 1018.38 1017.82 1017.26 1016.85 1016.49 1016.09 1015.73 1015.46 1015.02 1014.46 1013.73 1012.66
1029.26 1029.38 1029.45 1029.49 1029.54 1029.69 1029.81 1029.90 1029.90 1029.85 1029.81 1029.85 1029.81 1029.81 1029.85 1029.85 1029.90 1029.81 1029.69 1029.54 1029.30 1029.18 1029.18 1029.45 1029.21 1028.94 1028.61 1028.21 1027.61 1026.90 1026.57 1026.33 1026.06 1025.81 1025.57 1025.33 1024.94 1024.73 1024.57 1024.33 1024.06 1023.70 1023.34 1022.93 1022.66 1022.70 1022.14 1021.34 1020.58 1019.73 1019.05 1018.34 1017.70 1017.09 1016.53 1015.93 1015.53 1015.22 1014.90 1014.49 1014.02 1013.29 1012.46
1029.45 1029.54 1029.57 1029.66 1029.78 1029.97 1030.14 1030.18 1030.14 1030.06 1029.97 1029.97 1030.02 1030.06 1030.09 1030.09 1030.09 1029.94 1029.81 1029.66 1029.38 1029.26 1029.14 1029.38 1029.33 1029.06 1028.73 1028.30 1027.57 1026.73 1026.49 1026.21 1026.02 1025.78 1025.49 1025.30 1024.97 1024.73 1024.49 1024.26 1024.02 1023.70 1023.38 1022.97 1022.82 1022.73 1022.29 1021.53 1020.49 1019.73 1019.05 1018.38 1017.66 1016.90 1016.22 1015.73 1015.46 1015.17 1014.73 1014.09 1013.41 1012.66 1011.82
1029.61 1029.69 1029.78 1029.85 1030.09 1030.26 1030.30 1030.30 1030.26 1030.18 1030.14 1030.18 1030.26 1030.30 1030.30 1030.26 1030.18 1030.09 1029.97 1029.78 1029.57 1029.33 1029.14 1029.30 1029.38 1029.18 1028.85 1028.54 1027.66 1026.90 1026.61 1026.26 1025.97 1025.73 1025.45 1025.21 1024.94 1024.69 1024.54 1024.42 1024.21 1023.85 1023.58 1023.14 1023.02 1022.70 1022.14 1021.49 1020.41 1019.90 1019.26 1018.61 1017.85 1016.93 1015.97 1015.22 1014.93 1014.58 1013.97 1013.34 1012.58 1011.78 1011.02
1029.69 1029.85 1029.97 1030.14 1030.30 1030.38 1030.33 1030.33 1030.45 1030.49 1030.42 1030.42 1030.42 1030.38 1030.21 1030.18 1030.18 1030.14 1030.09 1029.94 1029.90 1029.54 1029.26 1029.26 1029.38 1029.30 1029.06 1028.73 1028.09 1027.21 1026.78 1026.42 1026.14 1025.81 1025.45 1025.18 1024.94 1024.66 1024.54 1024.54 1024.38 1024.02 1023.78 1023.34 1023.14 1022.66 1022.09 1021.38 1020.41 1019.93 1019.49 1018.90 1018.02 1017.02 1016.02 1015.38 1014.61 1013.85 1013.38 1012.70 1011.85 1011.02 1010.26
1029.85 1030.02 1030.18 1030.42 1030.45 1030.45 1030.54 1030.66 1030.69 1030.66 1030.57 1030.49 1030.49 1030.38 1030.30 1030.18 1030.18 1030.09 1030.09 1030.09 1030.14 1029.81 1029.49 1029.30 1029.33 1029.38 1029.21 1028.97 1028.45 1027.45 1027.02 1026.66 1026.33 1025.97 1025.61 1025.30 1024.97 1024.69 1024.45 1024.21 1024.26 1024.18 1024.02 1023.66 1023.14 1022.58 1022.02 1021.46 1020.66 1019.97 1019.61 1019.22 1018.49 1017.53 1016.66 1015.97 1015.14 1014.05 1013.09 1012.17 1011.38 1010.58 1009.73
1030.06 1030.18 1030.33 1030.49 1030.57 1030.73 1030.81 1030.81 1030.90 1030.78 1030.73 1030.54 1030.54 1030.49 1030.42 1030.38 1030.30 1030.21 1030.14 1030.02 1029.97 1029.90 1029.78 1029.45 1029.42 1029.45 1029.33 1029.14 1028.85 1028.02 1027.21 1027.02 1026.69 1026.21 1025.78 1025.42 1025.06 1024.78 1024.49 1024.18 1023.93 1023.97 1023.97 1023.53 1023.05 1022.46 1021.90 1021.49 1020.97 1020.14 1019.70 1019.49 1018.93 1018.05 1017.14 1016.34 1015.41 1014.61 1013.66 1012.78 1011.73 1010.82 1010.02
1030.26 1030.42 1030.45 1030.61 1030.81 1030.97 1031.02 1031.06 1031.06 1030.97 1030.85 1030.81 1030.78 1030.73 1030.66 1030.49 1030.33 1030.30 1030.21 1030.14 1030.02 1029.94 1030.02 1029.85 1029.54 1029.57 1029.33 1029.18 1028.97 1028.54 1027.49 1027.49 1027.18 1026.45 1025.94 1025.54 1025.21 1024.94 1024.66 1024.38 1024.09 1024.06 1024.02 1023.58 1023.02 1022.41 1021.85 1021.34 1020.93 1020.34 1019.93 1019.70 1019.29 1018.58 1017.41 1016.34 1015.38 1014.61 1013.90 1012.93 1011.97 1011.05 1010.22
1030.33 1030.49 1030.66 1030.78 1030.97 1031.09 1031.21 1031.18 1031.18 1031.09 1030.97 1030.97 1030.94 1030.85 1030.73 1030.54 1030.38 1030.30 1030.18 1030.14 1030.09 1030.02 1029.94 1030.09 1029.85 1029.54 1029.49 1029.26 1028.97 1028.85 1028.26 1027.78 1027.73 1026.81 1026.18 1025.78 1025.54 1025.21 1025.02 1024.69 1024.38 1024.30 1024.14 1023.61 1023.02 1022.38 1021.82 1021.22 1020.66 1020.22 1019.97 1019.61 1018.85 1018.02 1017.26 1016.49 1015.73 1014.90 1014.14 1013.22 1012.34 1011.41 1010.61
1030.45 1030.61 1030.85 1030.97 1031.06 1031.18 1031.21 1031.26 1031.33 1031.26 1031.14 1030.97 1030.85 1030.78 1030.69 1030.66 1030.45 1030.33 1030.21 1030.06 1030.06 1030.02 1029.94 1029.73 1029.97 1029.73 1029.49 1029.30 1029.02 1028.73 1028.57 1028.18 1027.81 1027.02 1026.49 1026.09 1025.90 1025.61 1025.30 1025.06 1024.69 1024.54 1024.18 1023.58 1022.97 1022.38 1021.78 1021.22 1020.49 1020.26 1019.97 1019.29 1018.61 1017.93 1017.09 1016.34 1015.70 1014.97 1014.22 1013.38 1012.70 1011.93 1011.09
1030.49 1030.66 1030.85 1031.02 1031.06 1031.14 1031.26 1031.30 1031.26 1031.18 1031.14 1030.81 1030.61 1030.57 1030.54 1030.49 1030.38 1030.33 1030.26 1030.18 1030.06 1029.94 1029.81 1029.66 1029.57 1029.73 1029.54 1029.30 1028.97 1028.73 1028.42 1028.09 1027.85 1027.42 1026.73 1026.30 1026.18 1025.90 1025.61 1025.38 1025.09 1024.73 1024.06 1023.46 1022.90 1022.29 1021.73 1021.22 1020.78 1020.29 1019.73 1019.29 1018.66 1017.97 1017.29 1016.58 1015.82 1015.17 1014.49 1013.70 1012.82 1012.02 1011.38
Wind_Speed
7 7 6 5 5 5 6 7 6 7 9 9 9 9 9 9 9 9 9 9 8 8 7 7 7 7 6 7 7 7 5 4 5 5 5 5 5 6 4 6 7 8 8 9 9 8 10 12 10 7 8 8 8 9 9 10 10 10 10 10 11 12 10
6 5 5 5 5 6 7 6 6 6 7 9 10 9 9 10 9 9 8 9 9 9 8 8 8 8 9 8 8 8 8 7 6 5 5 5 4 5 5 7 7 6 6 7 8 7 7 10 12 10 10 9 8 8 8 9 9 9 10 10 11 12 11
5 5 5 6 6 6 7 7 7 7 7 7 9 10 9 9 9 9 8 9 8 7 7 7 8 8 8 9 8 7 7 8 7 8 8 7 7 6 5 4 5 6 8 8 4 6 7 8 11 12 10 12 12 9 7 8 10 10 10 10 11 12 11
7 6 6 7 6 6 7 7 7 6 7 7 7 9 10 9 9 9 8 8 7 7 7 7 7 7 7 7 7 8 7 7 5 7 7 8 8 8 9 7 7 5 5 8 10 9 8 9 11 12 11 11 13 14 9 9 9 11 10 10 11 12 11
8 7 8 8 8 8 7 7 6 6 7 8 8 8 9 9 8 8 9 8 8 8 8 7 7 7 7 6 6 7 7 7 8 8 6 7 9 8 9 9 8 8 9 9 8 6 8 10 10 12 12 12 12 12 11 10 11 11 11 12 11 11 11
8 9 8 10 8 7 7 7 7 7 7 8 8 8 9 10 7 8 8 8 8 8 8 8 7 8 8 7 7 9 9 10 10 10 8 9 9 8 8 8 9 10 10 8 8 6 7 8 9 11 12 11 13 14 12 11 10 8 9 10 10 11 11
9 9 8 8 9 8 8 8 8 7 7 8 8 9 8 8 8 8 8 8 8 8 8 8 8 8 9 7 8 9 10 9 9 10 9 10 9 10 9 9 8 8 9 9 8 8 10 10 9 10 11 10 11 13 12 11 11 11 9 9 10 11 11
8 8 8 8 7 8 9 9 8 8 8 8 9 8 8 8 8 8 8 8 8 8 8 9 8 8 9 7 7 9 8 9 10 10 9 10 10 12 12 10 10 9 9 10 10 11 10 10 11 11 11 14 13 11 13 12 11 12 13 9 9 10 11
8 8 8 8 7 8 10 9 9 9 8 9 9 8 8 8 9 8 9 9 9 8 9 9 10 8 9 9 9 9 10 9 10 12 10 11 11 13 11 11 9 9 9 10 10 10 11 11 11 11 12 12 13 14 13 14 12 13 11 10 9 11 11
10 10 9 10 9 9 10 10 9 9 9 9 8 8 8 9 9 9 9 9 10 10 9 9 10 10 10 9 9 10 10 11 10 10 10 10 11 11 11 12 10 10 9 10 10 10 10 10 10 11 10 10 10 13 14 14 14 14 12 10 11 8 8
11 11 10 11 10 10 10 9 9 9 10 9 8 7 9 10 10 10 10 10 10 11 11 10 10 10 10 9 9 9 10 11 10 9 10 10 10 10 11 11 10 9 10 10 10 11 10 11 10 10 10 9 11 12 12 14 14 10 13 13 11 11 9
10 10 10 11 11 11 12 11 11 10 10 10 8 9 9 10 9 10 10 10 10 11 11 11 10 10 10 9 10 9 11 11 10 10 10 11 10 10 11 12 12 11 11 11 11 10 10 10 11 11 10 10 11 11 11 10 13 10 9 13 12 12 12
10 9 9 10 10 11 12 11 11 11 10 9 9 9 9 10 10 11 10 10 11 11 11 11 10 10 10 10 9 10 11 12 12 11 11 10 9 10 11 12 11 10 10 10 10 10 10 10 10 10 10 10 10 9 9 10 13 17 12 12 14 15 16
11 10 10 10 10 11 11 11 10 9 9 10 9 10 10 10 11 11 11 11 12 12 12 12 10 10 10 11 10 11 11 12 12 11 11 12 12 12 11 11 11 11 12 11 10 10 10 11 11 10 9 10 10 10 9 9 13 15 15 12 14 13 12
10 10 10 10 11 10 10 10 9 9 10 9 9 10 10 9 10 11 11 12 12 12 12 12 11 10 11 11 11 8 9 11 12 12 12 12 13 12 12 12 12 12 11 11 11 10 10 10 11 11 10 10 10 10 9 9 10 10 16 14 13 14 14
10 11 11 10 11 10 10 10 9 10 9 8 8 9 10 10 10 11 11 12 12 12 13 12 11 11 11 12 11 11 10 10 11 11 11 12 13 13 13 13 13 13 10 12 12 10 11 12 12 12 12 10 10 10 11 10 9 12 14 15 13 14 13
11 10 11 10 11 10 9 9 9 9 9 8 9 9 9 10 10 10 11 12 12 12 13 12 12 11 11 11 11 11 11 11 11 11 12 12 13 13 13 13 13 13 12 12 12 12 11 13 13 12 12 12 11 12 11 10 10 9 9 13 14 12 13
10 11 10 9 10 10 9 9 8 9 9 9 9 8 9 9 9 10 10 12 12 12 12 12 13 12 11 10 11 11 11 11 11 11 12 12 13 13 13 13 14 13 13 13 13 13 13 16 14 12 13 12 12 12 11 13 13 11 11 12 14 12 11
10 10 10 9 10 9 9 9 8 8 9 9 9 9 9 8 9 10 10 11 11 12 12 13 13 13 12 12 11 11 10 11 11 11 11 12 12 13 13 13 13 13 14 13 13 13 14 16 14 14 15 14 14 13 14 14 13 14 13 12 12 15 11
8 8 9 9 8 8 8 8 8 8 8 9 9 9 9 9 8 9 10 10 11 13 13 13 14 13 13 12 11 11 11 11 11 10 11 12 13 13 13 13 13 13 14 13 14 14 15 17 15 16 15 16 16 16 16 15 14 14 14 14 13 12 12
8 8 8 8 8 8 8 8 8 8 8 9 9 9 9 9 8 9 9 10 12 13 13 13 14 15 14 13 11 12 11 11 11 11 12 12 13 13 13 13 13 13 14 13 14 14 15 15 15 16 16 16 16 17 16 16 16 14 13 13 12 13 12
7 8 8 8 8 8 8 8 8 8 8 8 7 8 8 9 9 10 10 10 10 10 11 11 11 14 15 15 12 11 11 12 12 12 13 13 13 13 13 12 12 13 15 17 19 17 16 16 15 17 17 17 17 17 16 15 15 15 14 13 14 13 13
8 8 8 8 8 8 8 8 8 8 9 8 8 8 8 9 9 10 10 10 10 10 10 9 14 18 16 15 13 10 10 11 12 13 13 13 14 14 14 13 13 18 18 19 19 16 15 16 19 18 18 17 17 17 16 15 14 14 14 14 13 14 15
7 8 8 8 8 9 9 7 8 8 9 8 8 8 8 10 9 9 9 9 11 12 10 11 17 16 17 19 14 10 11 11 13 13 13 13 13 14 14 14 14 16 17 19 18 16 15 18 20 21 21 21 20 17 16 16 14 14 14 13 14 14 14
8 8 8 9 8 8 8 9 9 9 8 9 8 8 9 9 9 8 8 9 12 10 10 14 16 17 17 17 15 11 12 12 12 12 12 13 12 13 14 14 14 13 14 18 18 17 20 22 21 21 21 20 20 19 17 14 15 15 14 14 15 15 14
8 8 8 8 8 8 9 9 10 10 10 8 8 9 9 9 9 8 8 10 11 10 10 15 15 16 17 17 15 12 11 12 11 12 12 13 13 13 13 13 14 14 14 22 18 18 20 21 22 22 21 20 19 18 17 16 17 16 16 16 16 18 16
8 8 8 8 8 9 10 10 9 8 7 8 8 8 9 9 8 9 8 8 9 9 11 14 15 16 16 17 15 10 9 9 10 12 13 12 12 13 13 14 14 15 16 17 17 20 19 19 20 19 18 18 18 20 19 18 17 17 14 13 14 17 18
9 9 8 8 9 10 9 8 8 7 7 8 8 8 8 8 7 8 8 8 8 9 9 13 14 16 16 16 15 9 9 8 9 9 9 11 14 14 14 14 15 15 16 17 17 20 19 20 20 18 18 18 19 18 18 18 16 15 15 14 15 17 19
8 8 8 9 9 9 9 8 8 7 7 7 7 7 7 7 7 8 8 8 9 10 10 13 15 16 16 17 15 9 9 10 10 10 10 10 10 10 12 15 15 16 17 17 21 23 21 20 20 19 19 19 19 18 17 15 16 16 17 16 16 16 17
8 8 8 9 9 8 8 8 7 6 7 7 7 7 6 6 6 7 8 8 9 9 10 13 15 16 16 18 13 10 10 10 10 11 10 10 10 10 11 14 16 16 17 18 21 22 22 22 19 19 19 19 19 18 18 18 19 19 19 21 23 24 24
8 8 8 8 8 7 7 7 7 5 6 6 7 6 6 7 7 7 7 8 9 8 10 11 14 16 16 17 15 10 10 10 11 11 11 11 10 10 12 16 17 15 17 18 22 22 22 22 20 19 19 20 21 21 21 20 17 16 19 20 20 20 19
7 8 8 7 7 8 7 7 5 5 5 6 6 6 7 7 7 7 7 7 9 9 9 10 13 15 16 16 14 9 10 10 11 11 11 11 11 11 12 12 15 15 18 18 22 21 22 21 20 19 19 19 20 23 21 22 18 18 19 19 17 17 15
7 7 7 7 7 6 5 6 6 6 6 6 6 6 6 7 8 7 7 7 7 8 9 9 12 14 15 14 16 11 8 10 10 11 11 11 11 12 12 13 13 18 22 22 22 22 21 21 20 19 18 16 17 20 19 19 18 17 18 17 17 16 16
7 6 6 6 6 5 5 5 5 5 6 5 5 6 6 6 6 7 7 7 8 8 8 9 10 13 15 15 14 13 9 10 10 9 10 12 12 12 12 13 12 18 22 22 21 22 21 21 20 17 17 14 15 19 20 14 18 23 16 17 15 13 12
5 5 5 5 5 5 4 4 4 4 4 4 6 6 6 6 6 6 6 6 7 7 7 8 10 11 13 15 15 13 9 10 10 9 10 11 12 12 12 12 12 17 21 21 21 21 21 20 21 14 16 23 24 24 19 16 14 12 12 14 12 12 12
5 4 4 4 5 5 4 4 3 3 3 4 5 6 6 5 6 6 6 6 6 6 7 6 8 10 13 14 14 14 12 10 13 10 9 11 11 11 11 12 13 19 20 19 19 20 20 22 18 16 23 24 24 24 20 13 14 11 10 10 10 12 12
5 5 5 4 4 4 4 3 3 3 3 3 4 6 6 6 6 6 7 6 6 7 6 6 6 8 11 12 12 13 13 13 12 10 9 9 10 10 11 12 13 19 18 18 18 17 17 18 16 21 21 23 23 21 16 14 14 13 13 14 14 12 12
Wind_Direction
82 88 78 71 65 65 59 45 42 36 34 33 35 30 28 28 26 24 22 19 18 13 9 10 1 356 356 352 343 331 319 314 306 299 316 324 328 317 281 274 269 261 254 256 264 281 289 302 302 289 280 286 278 274 264 255 249 247 241 237 243 240 228
80 71 68 58 57 55 59 49 41 38 38 39 38 33 29 29 27 24 23 23 21 18 12 8 1 358 360 358 0 348 346 333 321 307 290 295 297 298 316 309 314 307 282 263 277 272 282 298 295 301 305 305 285 273 268 255 251 246 242 240 235 241 240
78 79 66 64 59 55 57 49 44 42 41 41 42 32 29 30 30 27 25 24 20 12 9 6 359 357 357 356 355 346 351 1 358 351 338 318 303 301 296 294 304 309 297 303 281 286 273 260 283 299 303 303 299 296 291 262 252 250 248 244 241 238 233
71 67 68 60 54 52 53 50 48 47 44 45 42 38 27 23 28 27 24 23 19 13 8 4 2 355 349 345 344 350 360 4 357 347 345 344 335 321 304 299 298 279 286 301 303 304 306 304 303 297 298 293 292 296 286 282 273 265 258 252 246 241 237
66 67 65 61 52 52 49 51 51 53 51 48 45 41 30 21 23 23 19 18 18 11 11 1 358 350 341 336 347 352 352 357 358 357 347 346 346 335 332 326 312 297 293 292 291 287 292 296 294 293 297 299 292 284 291 285 276 270 263 256 250 247 241
66 66 67 63 56 55 53 51 50 51 49 49 45 44 39 29 26 26 23 20 14 11 3 359 353 352 349 345 351 354 354 359 358 356 352 349 342 340 337 329 328 322 311 308 300 285 281 283 286 293 292 298 294 295 291 287 284 272 262 258 253 251 248
69 67 67 66 65 65 62 60 56 53 53 50 46 44 36 32 32 31 26 24 18 10 5 358 357 357 357 356 2 3 358 359 355 355 351 348 344 347 341 336 337 324 316 316 312 301 298 296 292 288 296 293 291 290 289 286 278 278 263 242 245 250 248
70 71 68 65 62 64 65 64 60 58 58 55 50 46 36 35 32 30 27 24 17 11 6 5 1 2 3 6 11 11 8 4 2 358 356 353 350 348 344 344 333 327 333 330 326 319 318 307 298 298 300 301 297 288 290 286 286 271 273 270 251 246 247
69 69 67 64 62 60 62 61 60 58 59 62 58 49 38 33 31 28 27 24 16 14 14 17 15 13 16 19 17 15 13 9 4 6 3 356 353 350 348 345 339 336 333 336 333 330 329 325 317 312 307 300 303 303 297 292 288 281 277 278 265 251 251
67 65 65 63 60 59 59 58 57 56 59 61 58 49 42 37 34 30 27 20 18 17 20 20 20 22 25 24 20 16 15 8 8 9 6 2 357 354 351 349 346 338 338 337 333 330 325 323 320 314 311 308 305 298 299 298 294 296 291 285 285 269 247
71 68 64 62 59 57 56 55 54 55 54 59 54 45 42 38 35 31 27 22 18 21 22 21 22 24 23 24 17 18 13 7 8 8 6 359 358 355 353 350 347 340 340 337 336 332 331 327 321 320 319 317 316 306 303 298 296 290 289 286 279 279 272
71 68 64 63 61 60 60 59 57 57 60 58 48 46 43 38 36 31 29 25 21 23 23 23 22 24 21 20 19 14 10 6 7 6 5 2 357 354 351 351 351 347 343 336 333 333 333 340 341 338 336 335 332 329 322 312 303 291 291 291 288 283 280
71 70 67 64 64 64 64 64 64 61 58 55 50 46 43 41 36 34 29 26 25 24 25 24 22 22 19 19 17 16 10 8 6 5 1 1 354 348 346 347 349 348 345 337 337 337 343 345 342 336 333 332 328 330 329 324 314 308 312 299 291 287 282
74 72 69 67 67 65 65 64 62 61 57 54 48 45 42 38 36 33 30 28 26 25 25 24 22 18 19 18 19 17 11 9 6 4 359 359 360 355 350 346 346 348 346 341 339 340 343 343 340 335 334 333 329 331 335 327 317 311 308 312 307 296 290
75 73 72 70 69 68 64 61 61 59 58 52 49 46 43 40 37 33 31 28 26 26 24 23 20 19 17 16 17 15 9 7 6 3 360 359 357 359 353 350 348 348 346 342 339 341 345 344 342 337 335 334 329 325 328 321 314 310 305 312 310 310 302
77 76 74 71 68 67 65 62 58 59 56 55 50 47 43 42 38 36 35 32 28 26 22 20 17 15 15 14 11 9 6 5 3 359 357 357 357 355 354 352 352 350 347 344 343 342 346 344 341 336 332 331 327 322 321 320 315 310 310 304 306 303 302
75 74 73 69 66 64 65 64 60 59 58 53 53 48 46 43 42 37 38 35 32 28 24 21 18 15 14 11 9 7 3 3 1 358 357 356 357 357 354 352 353 351 349 345 344 344 345 343 340 335 331 329 327 324 320 317 310 299 297 297 302 302 300
75 71 70 68 66 65 63 63 59 58 58 57 52 51 49 45 43 42 38 35 32 28 25 20 16 14 11 7 5 3 0 359 357 357 359 359 360 358 355 354 352 352 350 345 346 345 344 341 339 335 331 330 326 323 320 317 312 305 298 294 296 295 293
74 73 73 70 66 64 62 60 61 58 55 57 56 52 51 46 42 41 39 35 32 31 29 24 19 13 9 6 4 1 358 357 358 0 360 360 1 0 356 354 353 352 351 348 346 344 342 340 337 333 330 328 325 321 318 314 311 309 301 292 291 295 297
77 75 72 68 67 64 62 60 59 58 56 56 54 53 50 49 44 40 38 34 32 31 28 24 19 12 8 6 4 3 1 2 1 2 2 1 1 1 358 356 354 354 351 348 347 344 341 339 336 331 328 326 323 321 318 314 311 308 304 300 295 288 291
78 74 72 69 65 62 60 60 58 56 56 56 54 51 47 44 43 41 38 35 33 35 30 26 19 12 7 4 1 5 5 4 3 3 2 2 2 359 357 356 354 354 350 349 346 341 341 338 333 327 325 322 320 318 316 314 312 308 303 301 294 297 292
76 73 70 66 64 61 60 59 59 58 56 56 52 49 48 43 42 42 40 37 34 30 28 22 18 10 7 6 5 7 7 8 6 4 3 2 2 360 357 354 352 350 347 345 342 338 335 333 329 325 321 319 316 313 310 308 308 307 303 299 297 294 292
76 72 69 67 64 63 62 60 60 59 56 54 51 46 45 43 41 40 37 34 32 31 26 23 4 1 1 4 5 9 9 11 8 7 4 1 1 359 357 354 349 348 346 345 341 336 334 327 322 317 314 314 312 310 305 302 300 301 302 299 296 298 294
76 73 69 67 66 65 64 62 61 59 55 51 48 46 43 42 39 37 35 33 31 32 27 14 359 1 358 1 5 11 13 11 12 9 5 2 358 355 353 352 349 347 347 345 343 342 336 329 321 314 308 304 301 299 301 298 292 295 296 293 294 290 286
77 72 69 67 66 65 64 62 59 55 54 50 47 46 44 40 38 34 32 34 34 28 25 12 360 1 360 359 2 8 21 16 12 10 5 1 359 356 353 351 349 348 347 346 344 343 339 333 323 315 311 305 300 291 282 279 290 293 288 291 291 286 285
80 75 70 68 65 64 61 60 56 53 52 49 50 47 40 39 37 33 31 33 32 25 25 10 359 1 2 359 354 354 28 19 14 14 8 5 2 358 354 350 349 348 347 346 346 345 340 334 327 322 315 311 308 308 306 290 269 269 283 280 283 285 281
81 75 71 67 64 61 59 57 59 58 58 53 49 46 42 41 38 35 31 29 32 27 26 6 359 1 3 357 350 343 26 17 18 18 16 11 7 2 358 354 350 348 347 346 347 346 338 334 331 327 325 324 322 318 313 306 299 286 275 277 279 281 284
82 76 70 67 64 61 58 60 58 56 55 51 48 45 39 39 35 33 30 28 31 30 26 5 2 1 1 355 339 347 14 10 10 11 8 11 12 10 3 358 354 351 349 348 350 344 337 336 333 330 327 326 324 323 319 319 319 315 307 296 287 281 280
84 78 73 68 67 64 61 59 58 55 58 57 55 52 49 44 38 36 32 27 30 30 26 13 4 2 358 356 333 7 9 12 8 4 4 3 4 4 7 5 0 357 352 350 348 339 335 336 338 335 332 330 328 325 323 320 314 307 298 292 287 279 276
88 81 75 73 69 65 64 60 57 51 60 59 56 55 53 49 43 37 32 29 24 27 27 15 6 3 359 356 345 9 8 10 8 5 6 2 1 359 360 4 4 0 355 352 343 335 336 335 344 341 336 334 332 329 328 329 325 313 301 294 288 281 276
95 85 79 75 71 68 65 64 60 47 58 61 60 53 56 59 54 43 31 33 16 13 22 13 7 1 360 358 346 1 9 12 10 8 6 4 2 360 356 355 358 357 352 348 338 336 338 343 348 345 342 338 336 336 334 332 327 323 316 309 304 299 295
97 91 85 77 71 70 63 62 62 62 65 70 65 64 56 58 54 47 37 28 13 9 10 8 7 359 358 360 355 359 9 8 7 7 5 6 4 2 358 0 358 355 349 340 337 339 341 347 349 349 347 340 337 337 335 330 325 325 328 327 327 326 323
101 98 94 86 77 73 73 72 65 67 66 68 68 62 61 56 51 44 30 25 25 18 8 3 4 352 358 359 360 350 14 6 1 358 4 6 6 6 3 359 359 357 347 341 340 340 343 347 352 352 350 341 335 333 328 324 324 326 324 326 324 327 326
111 98 93 91 89 84 78 80 71 71 71 66 66 62 55 51 49 45 35 27 24 22 17 0 360 353 354 356 2 358 6 11 355 351 1 8 7 6 1 358 355 352 343 339 339 340 341 345 349 352 349 342 334 324 325 327 329 329 327 327 326 325 328
114 107 103 106 106 97 88 80 77 73 73 71 68 61 49 46 46 40 39 29 25 16 12 8 360 357 356 352 355 4 5 6 354 345 357 8 3 4 358 352 352 344 337 336 338 340 341 343 346 353 344 339 335 338 338 336 327 325 325 330 326 329 331
126 122 119 117 111 104 99 91 82 75 77 79 72 65 54 45 41 38 33 30 23 18 5 13 10 0 357 351 352 355 358 359 349 353 359 7 3 356 354 349 344 336 333 334 338 340 343 346 350 348 343 345 342 339 340 335 336 327 323 322 326 332 332
137 137 135 131 118 112 103 100 85 72 57 57 66 59 51 41 39 36 30 24 24 17 13 5 16 9 354 351 346 353 354 356 1 0 353 9 358 355 353 348 335 328 333 338 338 340 342 349 348 343 347 348 345 343 344 338 338 335 331 337 337 335 335